Tracking 18785 objects as of 26-July-2017
HD Live streaming from Space Station
objects crossing your sky now
MAYAK may become the brightest orbital object in the night sky!
Where is MAYAK now?
How to spot MAYAK

OPS 9442 (DSCS 2-12)

Track OPS 9442 (DSCS 2-12) now!
OPS 9442 (DSCS 2-12) is classified as:


NORAD ID: 11145
Int'l Code: 1978-113B
Perigee: 36,299.3 km
Apogee: 36,329.3 km
Inclination: 14.5 °
Period: 1,462.8 minutes
Semi major axis: 42685 km
RCS: 5.0418 m2 (large)
Launch date: December 14, 1978
Source: United States (US)
Launch site: AIR FORCE EASTERN TEST RANGE (AFETR)
Your satellite tracking list
Your tracking list is empty





NASA's NSSDC Master Catalog

Two Line Element Set (TLE):
1 11145U 78113B   17206.65254323 -.00000235 +00000-0 +00000-0 0  9999
2 11145 014.4656 334.3980 0003506 107.7700 076.9306 00.98443139085089
Source of the keplerian elements: AFSPC